Theta_e
325 326 326 326 328 328 327 324 323 326 328 329 328 329 329 326 325 326 325 323 323 325 324 324 317 313 311 310 309 309 310 311 312 313 314 315 314 314
325 325 326 326 328 328 326 327 326 328 327 328 328 328 327 328 326 325 325 325 324 326 327 323 315 313 310 309 309 312 313 314 315 315 315 314 314 314
325 324 325 328 328 327 327 327 327 328 328 327 327 327 327 325 325 325 325 326 326 327 324 318 314 311 309 309 311 314 317 317 316 316 315 315 316 316
323 325 327 326 328 327 328 328 327 328 328 328 328 326 325 326 326 327 327 327 327 326 322 317 311 310 310 315 317 318 318 318 318 318 319 319 319 319
322 324 327 328 328 327 328 328 328 328 327 328 326 326 326 326 327 327 326 327 321 321 313 310 312 316 319 320 320 320 320 321 321 321 320 321 321 320
327 327 328 328 328 328 329 328 328 327 327 327 327 327 326 326 326 326 326 327 314 311 314 318 319 320 321 322 322 322 321 321 320 320 318 316 315 312
327 328 328 328 328 328 328 328 328 327 327 327 327 327 327 326 325 326 326 323 313 315 318 321 322 323 322 322 320 319 318 316 313 311 310 307 305 302
328 327 327 328 328 327 327 328 326 327 327 327 327 327 326 326 326 326 324 312 315 319 321 322 323 322 317 316 313 312 311 310 308 304 300 297 297 296
326 328 328 327 327 326 326 326 326 326 326 327 327 327 326 326 323 318 311 314 319 321 322 321 318 316 312 312 312 310 308 304 297 297 297 296 296 296
326 326 327 326 325 325 325 325 324 325 325 325 327 323 318 313 314 315 318 321 321 322 323 320 313 312 311 310 309 309 302 297 297 296 296 296 295 294
327 326 327 324 324 325 324 324 321 319 319 319 319 317 317 319 320 320 319 320 322 322 319 312 312 310 310 309 309 302 297 296 296 295 294 294 295 294
325 325 325 325 325 324 322 320 320 320 321 321 321 322 321 321 321 320 318 316 315 314 314 316 315 310 309 309 305 296 296 296 295 294 294 294 294 295
325 325 325 325 323 322 321 321 322 323 322 321 321 323 318 313 313 315 317 316 317 319 319 318 316 310 306 302 296 295 295 295 295 295 294 294 294 293
325 325 326 326 323 320 321 321 322 322 320 320 319 315 313 314 317 318 319 319 320 320 317 313 310 302 296 295 295 294 295 295 295 295 295 295 294 293
326 325 326 325 322 320 320 321 321 320 319 317 313 313 314 315 316 319 319 320 319 316 312 308 297 296 296 295 295 295 295 295 294 295 294 293 293 292
327 327 322 317 316 316 318 318 318 317 316 314 314 313 313 314 317 319 320 319 316 312 309 297 296 296 295 295 295 295 295 295 295 294 294 293 292 291
317 318 317 315 315 315 315 315 315 314 315 316 315 313 311 315 319 319 319 317 312 310 299 295 295 295 295 295 295 295 295 294 293 293 293 293 291 289
315 315 315 314 314 314 314 314 314 315 317 316 313 311 312 315 318 319 317 313 310 304 295 295 295 295 295 295 295 295 294 293 293 293 292 292 289 288
314 311 311 312 312 312 313 314 314 315 315 313 310 310 313 316 319 318 315 310 306 297 295 295 295 295 295 295 295 294 293 293 292 292 291 290 288 288
314 312 311 310 311 312 313 314 314 314 313 311 310 311 314 316 319 318 314 310 301 296 295 295 295 295 295 294 293 292 292 292 292 291 291 290 288 288
311 312 311 311 311 311 311 312 313 314 313 311 310 311 314 317 318 316 311 307 297 296 295 295 295 294 294 294 293 291 291 290 291 290 289 289 289 288
309 309 310 311 313 313 311 311 310 311 311 310 310 312 315 318 318 316 310 302 296 296 295 294 294 294 294 293 292 292 291 291 290 289 287 287 287 286
309 308 307 309 311 312 314 314 313 312 313 312 311 313 316 317 317 313 307 298 296 299 298 294 294 293 293 292 292 292 291 290 290 289 288 287 286 285
Wind_Speed
10 8 8 7 8 11 8 9 17 8 19 25 23 31 32 38 36 33 28 22 17 14 12 8 9 8 7 5 2 2 3 4 6 8 9 11 13 15
8 8 8 7 10 12 14 8 11 22 22 25 25 32 32 36 34 31 25 20 17 12 8 8 9 8 6 4 2 2 3 6 8 9 11 13 13 15
10 8 7 6 9 16 12 14 14 22 26 22 22 33 29 33 34 28 23 18 14 11 9 8 8 7 5 3 1 2 5 5 7 9 11 13 14 16
11 10 8 10 11 11 12 14 14 18 17 27 33 35 31 28 28 22 18 13 12 9 8 7 7 6 4 1 1 3 6 7 10 12 14 16 19 21
9 10 11 13 12 10 12 13 12 14 26 27 34 30 28 30 25 21 14 10 9 10 10 8 6 4 2 1 4 7 9 11 13 15 18 20 21 23
8 8 11 13 15 12 14 14 14 18 24 26 32 30 35 30 23 17 11 9 10 10 9 7 4 2 2 4 6 8 11 12 14 17 18 18 20 22
11 11 13 12 10 14 14 17 18 21 25 27 35 33 31 28 25 17 12 11 11 10 8 6 3 0 3 5 6 7 10 13 14 16 17 18 22 24
13 13 13 16 21 18 21 23 17 23 26 25 25 26 26 24 21 15 15 15 11 10 10 4 2 1 2 4 7 10 11 12 14 17 18 20 20 22
15 16 18 20 18 23 24 25 22 22 20 19 22 21 22 19 17 20 17 14 14 13 6 6 2 3 3 4 5 7 11 16 16 16 17 20 23 25
16 17 20 22 22 24 26 21 17 16 16 15 15 17 17 18 16 15 16 13 9 6 5 6 3 1 1 2 5 10 15 13 14 17 19 21 24 26
18 20 26 27 26 20 17 13 18 22 24 23 21 19 19 18 15 12 10 8 6 5 5 6 7 4 2 4 7 11 10 12 14 17 21 23 25 28
27 26 25 22 19 16 19 21 22 22 22 21 19 17 15 13 11 10 7 6 5 6 4 3 2 2 3 7 6 8 9 11 13 19 22 26 29 32
26 26 21 16 15 18 19 16 15 17 17 17 16 13 11 10 10 8 6 5 2 0 1 4 6 5 5 5 3 5 10 12 16 21 25 27 31 34
25 22 17 14 15 17 18 17 14 12 11 12 11 10 8 6 4 3 1 1 3 4 5 6 5 4 3 3 1 5 10 10 20 24 27 29 31 31
21 16 13 15 16 17 17 16 13 11 10 9 9 8 7 6 5 4 4 5 5 3 3 3 4 4 4 3 4 9 13 12 21 24 28 31 32 33
18 17 16 15 15 16 17 17 14 12 10 10 10 9 8 9 8 8 8 6 4 4 4 6 7 7 4 2 5 9 13 13 19 23 26 29 30 30
18 18 18 18 18 18 18 17 16 15 15 14 12 10 12 13 13 11 9 8 7 6 9 9 8 6 3 3 6 10 13 17 20 25 27 29 28 29
18 20 21 22 22 22 21 20 19 18 17 15 14 14 14 14 15 14 12 11 10 11 11 10 8 5 2 2 7 10 13 17 22 25 27 28 28 25
20 21 23 23 24 24 24 24 22 19 18 18 18 17 16 17 19 16 15 14 13 15 12 9 6 3 1 4 7 11 14 18 22 23 25 27 28 22
26 25 24 24 26 26 27 26 24 23 22 21 20 20 20 21 21 20 18 16 17 16 13 11 9 5 1 2 5 10 15 19 21 24 26 26 28 24
30 29 27 26 27 27 28 28 27 27 26 25 22 23 25 25 25 23 20 17 18 16 14 13 8 4 2 4 7 9 13 18 22 24 26 28 31 27
32 33 32 31 30 30 30 31 31 32 31 29 28 28 28 29 29 26 24 24 22 16 13 12 8 5 4 4 6 10 13 15 18 19 21 25 26 25
33 32 33 34 34 33 33 34 34 34 33 33 32 32 32 31 31 28 25 26 22 17 16 13 10 6 5 5 7 10 13 15 17 18 20 22 20 20
Wind_Direction
192 216 219 197 187 192 205 129 151 163 134 165 154 164 144 146 145 149 144 141 141 147 154 150 153 150 157 161 145 47 26 3 360 355 348 341 336 334
201 204 201 190 196 198 174 158 188 164 132 156 179 164 162 151 151 149 148 151 154 154 159 139 152 153 155 129 116 59 10 354 353 347 341 334 331 323
187 187 189 185 163 158 179 185 191 191 161 163 166 163 154 146 148 155 162 149 153 156 146 150 150 138 140 145 99 9 354 338 329 330 329 327 326 323
166 169 169 167 171 175 174 174 172 175 181 152 156 162 163 150 155 150 141 139 148 139 143 138 138 147 144 118 311 298 297 318 320 316 314 319 319 316
176 181 179 190 185 175 174 178 175 171 167 158 160 165 165 167 158 153 144 151 125 140 140 139 138 131 148 269 297 300 308 306 306 311 317 312 305 307
160 153 164 168 171 173 173 168 147 151 157 154 163 161 161 161 163 161 158 140 136 133 130 125 136 164 252 289 300 300 305 315 321 319 317 322 319 315
134 140 145 154 160 155 166 168 161 155 155 158 156 159 163 171 175 172 164 153 146 137 137 139 137 23 297 306 321 337 332 321 321 325 327 330 328 325
138 141 150 158 154 129 132 143 145 148 159 161 159 162 166 166 172 175 165 157 144 142 152 136 104 268 24 349 344 334 336 342 342 338 335 329 326 330
144 150 144 156 142 145 140 129 123 121 130 148 151 159 163 164 168 164 159 155 150 143 155 125 125 332 335 352 357 355 348 346 343 337 342 347 347 344
157 151 149 140 133 135 140 137 136 135 137 137 144 146 152 149 145 146 156 159 154 153 155 149 181 180 195 329 347 350 344 346 353 356 356 353 349 347
138 142 143 143 139 133 135 142 134 131 128 132 138 142 146 147 151 158 162 173 173 159 159 158 163 185 248 308 334 333 349 1 0 359 355 351 352 351
136 138 138 137 142 137 137 142 138 138 140 141 144 150 154 155 158 167 173 177 172 144 154 163 146 175 222 287 308 329 356 360 1 358 359 358 356 354
147 145 145 140 140 141 147 146 145 142 151 160 153 151 154 160 158 145 143 135 134 286 287 277 262 246 242 244 286 334 355 356 359 2 2 360 359 355
156 153 153 156 155 153 151 152 153 150 149 159 166 162 158 153 151 156 173 274 270 277 259 236 233 229 218 197 164 10 356 356 2 0 358 357 355 354
166 170 170 167 167 170 171 169 174 184 193 191 180 176 182 203 220 219 230 252 257 248 238 228 176 183 172 152 36 10 4 7 360 357 358 356 354 350
182 184 184 183 182 183 186 188 192 197 205 203 197 203 217 224 221 234 245 249 250 243 220 185 177 165 156 108 33 12 6 4 355 356 358 357 352 349
188 193 196 196 197 197 197 201 200 200 204 209 218 233 234 225 223 232 246 248 238 231 195 181 171 164 144 63 20 7 2 359 357 356 357 355 353 358
207 208 209 209 210 208 207 205 206 208 214 225 238 243 240 235 233 230 234 235 241 212 192 178 165 156 144 359 354 360 359 359 0 358 353 353 359 0
223 223 221 220 218 216 216 215 216 220 228 237 245 245 242 237 227 229 230 232 224 203 192 187 178 173 246 355 328 352 358 359 359 355 354 357 358 359
225 225 225 226 224 224 222 222 225 229 236 244 251 249 242 238 232 231 232 228 214 206 205 197 191 197 252 352 358 355 357 357 355 353 354 357 2 2
228 230 228 229 231 231 232 233 235 239 244 248 251 258 247 241 234 233 230 222 211 210 210 216 209 221 290 338 5 6 2 356 353 355 356 360 1 1
229 231 232 234 234 234 237 239 241 244 246 248 250 249 247 240 237 236 230 217 203 210 214 222 219 245 290 325 348 360 359 356 355 360 4 5 4 359
234 233 234 235 239 241 241 241 245 247 251 252 254 249 242 239 234 229 227 208 203 187 232 236 236 242 273 314 346 353 352 350 356 3 6 6 6 6